| time (UTC) | temp C | wind direction | speed KPH | gust KPH | rain 1hr cm | rain 24hr cm | rain mn cm | humidity % | barometer mb |
| 20260507081511 | 8 | 196 | 1.6 | 6.4 | 0.03 | 0.91 | 0.03 | 85 | 1006.8 |
| 20260507081003 | 9 | 80 | 0.0 | 3.2 | 0.00 | 0.89 | 0.00 | 84 | 1007.2 |
| 20260507080506 | 9 | 33 | 0.0 | 4.8 | 0.00 | 0.89 | 0.00 | 84 | 1007.2 |
| 20260507080006 | 9 | 39 | 1.6 | 4.8 | 0.00 | 0.89 | 0.00 | 84 | 1007.5 |
| 20260507075503 | 9 | 14 | 1.6 | 3.2 | 0.00 | 0.89 | 0.00 | 84 | 1007.2 |
| 20260507075006 | 9 | 136 | 0.0 | 3.2 | 0.00 | 0.89 | 0.00 | 85 | 1007.1 |
| 20260507074524 | 9 | 164 | 0.0 | 4.8 | 0.00 | 0.89 | 0.00 | 85 | 1007.1 |
| 20260507074003 | 9 | 339 | 0.0 | 4.8 | 0.00 | 0.89 | 0.00 | 85 | 1007.0 |
| 20260507073507 | 9 | 156 | 0.0 | 4.8 | 0.00 | 0.89 | 0.00 | 86 | 1007.1 |
| 20260507073020 | 9 | 166 | 0.0 | 3.2 | 0.00 | 0.89 | 0.00 | 86 | 1007.0 |
| 20260507072509 | 9 | 46 | 0.0 | 4.8 | 0.00 | 0.89 | 0.00 | 86 | 1007.0 |
| 20260507072002 | 9 | 66 | 1.6 | 4.8 | 0.00 | 0.89 | 0.00 | 86 | 1006.9 |
| 20260507071503 | 10 | 313 | 0.0 | 3.2 | 0.00 | 0.89 | 0.00 | 86 | 1007.0 |
| 20260507071003 | 9 | 48 | 1.6 | 3.2 | 0.00 | 0.89 | 0.00 | 86 | 1007.3 |
| 20260507070503 | 10 | 348 | 0.0 | 8.0 | 0.00 | 0.89 | 0.00 | 86 | 1006.9 |
| 20260507070012 | 10 | 63 | 1.6 | 8.0 | 0.00 | 0.89 | 0.00 | 86 | 1006.6 |
| 20260507065503 | 10 | 321 | 0.0 | 8.0 | 0.00 | 0.89 | 0.00 | 86 | 1006.8 |
| 20260507065004 | 10 | 33 | 0.0 | 6.4 | 0.00 | 0.89 | 0.00 | 86 | 1006.9 |
| 20260507064512 | 10 | 21 | 0.0 | 6.4 | 0.00 | 0.89 | 0.00 | 86 | 1006.8 |
| 20260507064007 | 10 | 325 | 1.6 | 3.2 | 0.00 | 0.89 | 0.00 | 86 | 1006.5 |
| 20260507063504 | 10 | 81 | 0.0 | 3.2 | 0.00 | 0.89 | 0.00 | 86 | 1006.5 |
| 20260507063016 | 10 | 80 | 0.0 | 3.2 | 0.00 | 0.89 | 0.00 | 86 | 1006.5 |
| 20260507062505 | 10 | 148 | 0.0 | 3.2 | 0.00 | 0.89 | 0.00 | 87 | 1006.5 |
| 20260507062010 | 10 | 45 | 1.6 | 3.2 | 0.00 | 0.89 | 0.00 | 87 | 1006.4 |
| 20260507061520 | 10 | 302 | 0.0 | 8.0 | 0.00 | 0.89 | 0.00 | 87 | 1006.5 |
| 20260507061007 | 10 | 240 | 0.0 | 8.0 | 0.00 | 0.89 | 0.00 | 87 | 1006.8 |
| 20260507060504 | 10 | 28 | 0.0 | 3.2 | 0.00 | 0.89 | 0.00 | 88 | 1006.8 |
| 20260507060004 | 10 | 350 | 0.0 | 3.2 | 0.00 | 0.89 | 0.00 | 88 | 1006.8 |
| 20260507055503 | 10 | 212 | 0.0 | 3.2 | 0.00 | 0.89 | 0.00 | 88 | 1006.8 |
| 20260507055003 | 10 | 211 | 0.0 | 3.2 | 0.00 | 0.89 | 0.00 | 88 | 1006.9 |
| 20260507054508 | 10 | 160 | 0.0 | 6.4 | 0.00 | 0.89 | 0.00 | 88 | 1006.8 |
| 20260507054003 | 10 | 271 | 0.0 | 6.4 | 0.00 | 0.89 | 0.00 | 87 | 1006.8 |
| 20260507053505 | 10 | 178 | 0.0 | 6.4 | 0.00 | 0.89 | 0.00 | 87 | 1006.5 |
| 20260507053014 | 10 | 302 | 0.0 | 6.4 | 0.00 | 0.89 | 0.00 | 88 | 1006.8 |
| 20260507052508 | 10 | 255 | 0.0 | 3.2 | 0.00 | 0.89 | 0.00 | 88 | 1006.8 |
| 20260507052008 | 10 | 311 | 0.0 | 3.2 | 0.00 | 0.89 | 0.00 | 87 | 1006.8 |
| 20260507051529 | 10 | 227 | 0.0 | 3.2 | 0.00 | 0.89 | 0.00 | 87 | 1006.5 |
| 20260507051005 | 10 | 284 | 0.0 | 4.8 | 0.00 | 0.89 | 0.00 | 87 | 1006.4 |
| 20260507050506 | 10 | 346 | 1.6 | 4.8 | 0.00 | 0.89 | 0.00 | 87 | 1006.5 |
| 20260507050023 | 11 | 123 | 0.0 | 4.8 | 0.00 | 0.89 | 0.00 | 88 | 1006.5 |
| 20260507045507 | 11 | 268 | 1.6 | 4.8 | 0.00 | 0.89 | 0.00 | 88 | 1006.7 |
| 20260507045004 | 11 | 265 | 0.0 | 8.0 | 0.00 | 0.89 | 0.00 | 88 | 1006.6 |
| 20260507044509 | 11 | 303 | 0.0 | 8.0 | 0.00 | 0.89 | 0.00 | 88 | 1006.7 |
| 20260507044004 | 11 | 59 | 1.6 | 8.0 | 0.00 | 0.89 | 0.00 | 89 | 1006.9 |
| 20260507043504 | 11 | 51 | 0.0 | 3.2 | 0.00 | 0.89 | 0.00 | 88 | 1007.0 |
| 20260507043012 | 11 | 63 | 0.0 | 3.2 | 0.00 | 0.89 | 0.00 | 88 | 1006.9 |
| 20260507042506 | 11 | 350 | 0.0 | 3.2 | 0.00 | 0.89 | 0.00 | 88 | 1006.7 |
| 20260507042004 | 11 | 270 | 0.0 | 3.2 | 0.00 | 0.89 | 0.00 | 88 | 1006.6 |
| 20260507041520 | 11 | 9 | 0.0 | 4.8 | 0.00 | 0.89 | 0.00 | 88 | 1006.6 |
| 20260507041008 | 11 | 318 | 0.0 | 4.8 | 0.00 | 0.89 | 0.00 | 88 | 1006.6 |
| 20260507040508 | 11 | 105 | 1.6 | 4.8 | 0.00 | 0.89 | 0.00 | 88 | 1006.5 |
| 20260507040021 | 12 | 284 | 0.0 | 3.2 | 0.00 | 0.89 | 0.00 | 89 | 1006.7 |
| 20260507035507 | 12 | 254 | 0.0 | 4.8 | 0.00 | 0.89 | 0.89 | 88 | 1006.5 |
| 20260507035006 | 12 | 323 | 1.6 | 8.0 | 0.00 | 0.89 | 0.89 | 89 | 1006.3 |
| 20260507034537 | 12 | 32 | 1.6 | 8.0 | 0.00 | 0.89 | 0.89 | 89 | 1006.2 |
| 20260507034007 | 12 | 323 | 1.6 | 6.4 | 0.00 | 0.89 | 0.89 | 90 | 1006.3 |
| 20260507033504 | 13 | 294 | 1.6 | 6.4 | 0.00 | 0.89 | 0.89 | 90 | 1006.3 |
| 20260507033012 | 13 | 20 | 3.2 | 6.4 | 0.00 | 0.89 | 0.89 | 91 | 1006.3 |
| 20260507032505 | 13 | 292 | 1.6 | 6.4 | 0.00 | 0.89 | 0.89 | 91 | 1006.6 |
| 20260507032006 | 13 | 321 | 1.6 | 4.8 | 0.00 | 0.89 | 0.89 | 92 | 1006.6 |
| 20260507031515 | 14 | 64 | 1.6 | 4.8 | 0.00 | 0.89 | 0.89 | 92 | 1006.4 |
| 20260507031002 | 14 | 320 | 0.0 | 8.0 | 0.00 | 0.89 | 0.89 | 92 | 1006.3 |
| 20260507030502 | 14 | 51 | 1.6 | 12.9 | 0.00 | 0.89 | 0.89 | 92 | 1006.1 |
| 20260507030003 | 14 | 323 | 1.6 | 12.9 | 0.00 | 0.89 | 0.89 | 92 | 1006.1 |
| 20260507025502 | 15 | 9 | 1.6 | 3.2 | 0.00 | 0.89 | 0.89 | 92 | 1006.0 |
| 20260507025003 | 15 | 321 | 0.0 | 3.2 | 0.00 | 0.89 | 0.89 | 92 | 1006.0 |
| 20260507024504 | 15 | 127 | 0.0 | 3.2 | 0.00 | 0.89 | 0.89 | 92 | 1005.8 |
| 20260507024004 | 15 | 277 | 0.0 | 9.7 | 0.00 | 0.89 | 0.89 | 92 | 1005.7 |
| 20260507023508 | 15 | 190 | 1.6 | 9.7 | 0.00 | 0.89 | 0.89 | 92 | 1005.6 |
| 20260507023008 | 15 | 227 | 0.0 | 4.8 | 0.00 | 0.89 | 0.89 | 92 | 1005.6 |
| 20260507022505 | 15 | 214 | 0.0 | 8.0 | 0.00 | 0.89 | 0.89 | 92 | 1005.7 |
| 20260507022006 | 15 | 192 | 1.6 | 8.0 | 0.00 | 0.89 | 0.89 | 92 | 1005.7 |
| 20260507021515 | 15 | 153 | 1.6 | 9.7 | 0.00 | 0.89 | 0.89 | 92 | 1005.7 |
| 20260507021007 | 15 | 149 | 0.0 | 9.7 | 0.00 | 0.89 | 0.89 | 92 | 1005.7 |
| 20260507020507 | 15 | 176 | 1.6 | 3.2 | 0.00 | 0.89 | 0.89 | 92 | 1005.9 |
| 20260507020004 | 15 | 182 | 0.0 | 3.2 | 0.00 | 0.89 | 0.89 | 92 | 1006.0 |
| 20260507015506 | 15 | 188 | 1.6 | 4.8 | 0.00 | 0.89 | 0.89 | 92 | 1006.0 |
| 20260507015002 | 15 | 224 | 1.6 | 4.8 | 0.00 | 0.89 | 0.89 | 92 | 1006.0 |
| 20260507014506 | 15 | 166 | 0.0 | 6.4 | 0.00 | 0.89 | 0.89 | 92 | 1006.1 |
| 20260507014004 | 15 | 122 | 0.0 | 6.4 | 0.00 | 0.89 | 0.89 | 92 | 1006.1 |
| 20260507013504 | 15 | 183 | 1.6 | 6.4 | 0.00 | 0.89 | 0.89 | 92 | 1006.2 |
| 20260507013008 | 15 | 130 | 1.6 | 6.4 | 0.00 | 0.89 | 0.89 | 92 | 1006.1 |
| 20260507012504 | 15 | 115 | 3.2 | 6.4 | 0.00 | 0.89 | 0.89 | 92 | 1006.0 |
| 20260507012002 | 15 | 162 | 1.6 | 4.8 | 0.00 | 0.89 | 0.89 | 92 | 1006.2 |
| 20260507011531 | 15 | 257 | 0.0 | 3.2 | 0.00 | 0.89 | 0.89 | 92 | 1006.2 |
| 20260507011005 | 15 | 158 | 0.0 | 3.2 | 0.00 | 0.89 | 0.89 | 92 | 1006.2 |
| 20260507010506 | 15 | 147 | 0.0 | 12.9 | 0.00 | 0.89 | 0.89 | 92 | 1006.2 |
| 20260507010019 | 15 | 179 | 1.6 | 12.9 | 0.00 | 0.89 | 0.89 | 92 | 1006.2 |
| 20260507005507 | 15 | 150 | 1.6 | 11.3 | 0.00 | 0.89 | 0.89 | 92 | 1006.2 |
| 20260507005006 | 15 | 146 | 1.6 | 11.3 | 0.03 | 0.89 | 0.89 | 92 | 1006.0 |
| 20260507004503 | 15 | 132 | 3.2 | 9.7 | 0.03 | 0.89 | 0.89 | 92 | 1006.2 |
| 20260507004005 | 15 | 202 | 3.2 | 8.0 | 0.03 | 0.89 | 0.89 | 92 | 1006.2 |
| 20260507003504 | 15 | 113 | 1.6 | 6.4 | 0.03 | 0.89 | 0.89 | 92 | 1006.1 |
| 20260507003015 | 15 | 190 | 0.0 | 6.4 | 0.05 | 0.89 | 0.89 | 92 | 1006.1 |
| 20260507002503 | 15 | 203 | 1.6 | 6.4 | 0.05 | 0.89 | 0.89 | 92 | 1006.1 |
| 20260507002003 | 15 | 148 | 1.6 | 4.8 | 0.08 | 0.89 | 0.89 | 92 | 1005.9 |
| 20260507001512 | 15 | 166 | 0.0 | 4.8 | 0.08 | 0.89 | 0.89 | 92 | 1006.0 |
| 20260507001004 | 15 | 180 | 0.0 | 14.5 | 0.08 | 0.89 | 0.89 | 92 | 1005.8 |
| 20260507000507 | 15 | 178 | 0.0 | 14.5 | 0.08 | 0.89 | 0.89 | 92 | 1005.8 |
| 20260507000016 | 15 | 149 | 3.2 | 14.5 | 0.08 | 0.89 | 0.89 | 92 | 1005.7 |
| 20260506235507 | 15 | 138 | 0.0 | 6.4 | 0.08 | 0.89 | 0.89 | 92 | 1005.8 |
| 20260506235007 | 15 | 192 | 0.0 | 11.3 | 0.05 | 0.86 | 0.86 | 92 | 1005.8 |
| 20260506234520 | 15 | 196 | 1.6 | 11.3 | 0.08 | 0.86 | 0.86 | 92 | 1005.8 |
| 20260506234011 | 15 | 146 | 0.0 | 8.0 | 0.08 | 0.86 | 0.86 | 92 | 1005.4 |
| 20260506233508 | 15 | 88 | 1.6 | 8.0 | 0.08 | 0.86 | 0.86 | 92 | 1005.5 |
| 20260506233004 | 15 | 178 | 3.2 | 12.9 | 0.05 | 0.84 | 0.84 | 92 | 1005.6 |
| 20260506232505 | 15 | 100 | 1.6 | 12.9 | 0.05 | 0.84 | 0.84 | 92 | 1005.6 |
| 20260506232003 | 15 | 165 | 1.6 | 6.4 | 0.03 | 0.81 | 0.81 | 92 | 1005.8 |
| 20260506231509 | 15 | 212 | 0.0 | 6.4 | 0.03 | 0.81 | 0.81 | 92 | 1005.9 |
| 20260506231005 | 15 | 187 | 0.0 | 6.4 | 0.03 | 0.81 | 0.81 | 92 | 1005.8 |
| 20260506230505 | 15 | 128 | 0.0 | 12.9 | 0.03 | 0.81 | 0.81 | 92 | 1005.8 |
| 20260506230016 | 15 | 159 | 1.6 | 12.9 | 0.05 | 0.81 | 0.81 | 91 | 1005.8 |
| 20260506225503 | 15 | 245 | 1.6 | 12.9 | 0.05 | 0.81 | 0.81 | 91 | 1005.8 |
| 20260506225004 | 15 | 238 | 0.0 | 14.5 | 0.08 | 0.81 | 0.81 | 91 | 1005.8 |
| 20260506224518 | 15 | 144 | 1.6 | 14.5 | 0.08 | 0.79 | 0.79 | 92 | 1005.9 |
| 20260506224007 | 15 | 130 | 4.8 | 14.5 | 0.10 | 0.79 | 0.79 | 91 | 1005.9 |
| 20260506223508 | 15 | 199 | 3.2 | 8.0 | 0.10 | 0.79 | 0.79 | 91 | 1006.0 |
| 20260506223022 | 15 | 136 | 1.6 | 9.7 | 0.10 | 0.79 | 0.79 | 91 | 1006.0 |
| 20260506222511 | 15 | 163 | 4.8 | 9.7 | 0.13 | 0.79 | 0.79 | 91 | 1006.1 |
| 20260506222011 | 15 | 204 | 1.6 | 8.0 | 0.15 | 0.79 | 0.79 | 91 | 1006.1 |
| 20260506221507 | 15 | 145 | 1.6 | 3.2 | 0.18 | 0.79 | 0.79 | 91 | 1006.1 |
| 20260506221003 | 15 | 126 | 0.0 | 6.4 | 0.18 | 0.79 | 0.79 | 91 | 1006.1 |
| 20260506220502 | 15 | 136 | 0.0 | 6.4 | 0.20 | 0.79 | 0.79 | 91 | 1006.1 |
| 20260506220012 | 15 | 156 | 1.6 | 14.5 | 0.20 | 0.76 | 0.76 | 91 | 1006.3 |
| 20260506215504 | 15 | 126 | 3.2 | 14.5 | 0.23 | 0.76 | 0.76 | 91 | 1006.4 |
| 20260506215007 | 15 | 130 | 4.8 | 11.3 | 0.23 | 0.74 | 0.74 | 91 | 1006.4 |
| 20260506214519 | 15 | 53 | 1.6 | 12.9 | 0.23 | 0.71 | 0.71 | 91 | 1006.3 |
| 20260506214007 | 15 | 217 | 1.6 | 12.9 | 0.23 | 0.69 | 0.69 | 91 | 1006.4 |
| 20260506213506 | 15 | 192 | 1.6 | 12.9 | 0.25 | 0.69 | 0.69 | 91 | 1006.5 |
| 20260506213020 | 15 | 139 | 3.2 | 16.1 | 0.30 | 0.69 | 0.69 | 91 | 1006.4 |
| 20260506212509 | 15 | 159 | 3.2 | 16.1 | 0.30 | 0.66 | 0.66 | 91 | 1006.7 |
| 20260506212010 | 15 | 184 | 1.6 | 12.9 | 0.30 | 0.64 | 0.64 | 91 | 1006.6 |
| 20260506211530 | 16 | 105 | 1.6 | 12.9 | 0.28 | 0.61 | 0.61 | 91 | 1006.7 |
| 20260506211010 | 16 | 117 | 4.8 | 12.9 | 0.30 | 0.61 | 0.61 | 91 | 1006.6 |
| 20260506210509 | 16 | 147 | 1.6 | 12.9 | 0.30 | 0.58 | 0.58 | 91 | 1006.7 |
| 20260506210013 | 16 | 178 | 1.6 | 12.9 | 0.28 | 0.56 | 0.56 | 91 | 1006.7 |
| 20260506205502 | 16 | 147 | 3.2 | 6.4 | 0.25 | 0.53 | 0.53 | 91 | 1006.7 |
| 20260506205005 | 16 | 108 | 3.2 | 8.0 | 0.23 | 0.51 | 0.51 | 91 | 1006.8 |
| 20260506204516 | 16 | 84 | 0.0 | 8.0 | 0.20 | 0.48 | 0.48 | 91 | 1006.8 |
| 20260506204007 | 16 | 187 | 1.6 | 8.0 | 0.20 | 0.46 | 0.46 | 91 | 1006.9 |
| 20260506203503 | 16 | 170 | 0.0 | 6.4 | 0.18 | 0.43 | 0.43 | 91 | 1007.0 |
| 20260506203021 | 16 | 128 | 1.6 | 6.4 | 0.15 | 0.38 | 0.38 | 91 | 1007.0 |
| 20260506202505 | 16 | 135 | 0.0 | 3.2 | 0.13 | 0.36 | 0.36 | 91 | 1007.1 |
| 20260506202011 | 16 | 171 | 0.0 | 3.2 | 0.10 | 0.33 | 0.33 | 91 | 1006.9 |
| 20260506201527 | 16 | 138 | 0.0 | 3.2 | 0.13 | 0.33 | 0.33 | 91 | 1006.9 |
| 20260506201009 | 16 | 125 | 0.0 | 3.2 | 0.13 | 0.30 | 0.30 | 91 | 1006.9 |
| 20260506200506 | 16 | 178 | 0.0 | 3.2 | 0.10 | 0.28 | 0.28 | 91 | 1006.9 |
| 20260506200026 | 16 | 119 | 0.0 | 3.2 | 0.13 | 0.28 | 0.28 | 91 | 1006.8 |
| 20260506195512 | 16 | 153 | 0.0 | 3.2 | 0.13 | 0.28 | 0.28 | 90 | 1006.8 |
| 20260506195015 | 16 | 175 | 0.0 | 3.2 | 0.15 | 0.28 | 0.28 | 90 | 1007.0 |
| 20260506194514 | 16 | 130 | 0.0 | 3.2 | 0.15 | 0.28 | 0.28 | 90 | 1006.9 |
| 20260506194007 | 16 | 128 | 0.0 | 3.2 | 0.18 | 0.25 | 0.25 | 90 | 1006.8 |
| 20260506193503 | 16 | 125 | 0.0 | 3.2 | 0.18 | 0.25 | 0.25 | 90 | 1006.9 |
| 20260506193019 | 16 | 143 | 0.0 | 3.2 | 0.18 | 0.23 | 0.23 | 89 | 1007.0 |
| 20260506192507 | 16 | 144 | 0.0 | 3.2 | 0.18 | 0.23 | 0.23 | 89 | 1007.1 |
| 20260506192007 | 16 | 109 | 0.0 | 3.2 | 0.20 | 0.23 | 0.23 | 89 | 1007.1 |
| 20260506191523 | 16 | 40 | 0.0 | 3.2 | 0.20 | 0.20 | 0.20 | 89 | 1007.3 |
| 20260506191007 | 16 | 27 | 0.0 | 3.2 | 0.18 | 0.18 | 0.18 | 89 | 1007.2 |
| 20260506190506 | 16 | 51 | 0.0 | 3.2 | 0.18 | 0.18 | 0.18 | 88 | 1007.3 |
| 20260506190028 | 16 | 14 | 0.0 | 3.2 | 0.15 | 0.15 | 0.15 | 88 | 1007.4 |
| 20260506185511 | 16 | 60 | 0.0 | 3.2 | 0.15 | 0.15 | 0.15 | 87 | 1007.3 |
| 20260506185009 | 17 | 265 | 0.0 | 3.2 | 0.13 | 0.13 | 0.13 | 87 | 1007.6 |
| 20260506184528 | 17 | 290 | 0.0 | 3.2 | 0.13 | 0.13 | 0.13 | 86 | 1007.5 |
| 20260506184008 | 17 | 19 | 0.0 | 3.2 | 0.08 | 0.08 | 0.08 | 84 | 1007.0 |
| 20260506183510 | 17 | 321 | 1.6 | 3.2 | 0.08 | 0.08 | 0.08 | 83 | 1007.1 |
| 20260506183018 | 18 | 352 | 1.6 | 16.1 | 0.05 | 0.05 | 0.05 | 77 | 1007.0 |
| 20260506182503 | 19 | 205 | 3.2 | 16.1 | 0.05 | 0.05 | 0.05 | 72 | 1006.9 |
| 20260506182007 | 20 | 78 | 1.6 | 14.5 | 0.03 | 0.03 | 0.03 | 68 | 1007.0 |
| 20260506181521 | 21 | 166 | 4.8 | 16.1 | 0.00 | 0.00 | 0.00 | 61 | 1006.9 |
| 20260506181008 | 21 | 167 | 4.8 | 33.8 | 0.00 | 0.00 | 0.00 | 59 | 1006.8 |
| 20260506180508 | 21 | 9 | 1.6 | 33.8 | 0.00 | 0.00 | 0.00 | 59 | 1006.6 |
| 20260506180028 | 22 | 178 | 4.8 | 20.9 | 0.00 | 0.00 | 0.00 | 56 | 1006.5 |
| 20260506175507 | 22 | 131 | 8.0 | 14.5 | 0.00 | 0.00 | 0.00 | 55 | 1006.5 |
| 20260506175009 | 22 | 196 | 1.6 | 12.9 | 0.00 | 0.00 | 0.00 | 55 | 1006.6 |
| 20260506174527 | 22 | 191 | 3.2 | 16.1 | 0.00 | 0.00 | 0.00 | 55 | 1006.6 |
| 20260506174012 | 22 | 168 | 4.8 | 17.7 | 0.00 | 0.00 | 0.00 | 54 | 1006.7 |
| 20260506173510 | 22 | 277 | 4.8 | 17.7 | 0.00 | 0.00 | 0.00 | 54 | 1006.7 |
| 20260506173030 | 22 | 217 | 1.6 | 20.9 | 0.00 | 0.00 | 0.00 | 56 | 1006.8 |
| 20260506172508 | 22 | 167 | 3.2 | 20.9 | 0.00 | 0.00 | 0.00 | 57 | 1006.9 |
| 20260506172008 | 22 | 265 | 6.4 | 20.9 | 0.00 | 0.00 | 0.00 | 56 | 1007.1 |
| 20260506171520 | 22 | 145 | 3.2 | 19.3 | 0.00 | 0.00 | 0.00 | 58 | 1007.0 |
| 20260506171007 | 22 | 193 | 1.6 | 6.4 | 0.00 | 0.00 | 0.00 | 58 | 1007.1 |
| 20260506170507 | 22 | 157 | 1.6 | 6.4 | 0.00 | 0.00 | 0.00 | 60 | 1007.1 |
| 20260506170008 | 22 | 142 | 1.6 | 11.3 | 0.00 | 0.00 | 0.00 | 59 | 1007.1 |
| 20260506165502 | 21 | 174 | 3.2 | 11.3 | 0.00 | 0.00 | 0.00 | 61 | 1007.2 |
| 20260506165007 | 21 | 162 | 0.0 | 11.3 | 0.00 | 0.00 | 0.00 | 62 | 1007.4 |
| 20260506164508 | 21 | 133 | 1.6 | 9.7 | 0.00 | 0.00 | 0.00 | 61 | 1007.4 |
| 20260506164003 | 21 | 184 | 3.2 | 9.7 | 0.00 | 0.00 | 0.00 | 61 | 1007.5 |
| 20260506163502 | 21 | 170 | 3.2 | 11.3 | 0.00 | 0.00 | 0.00 | 61 | 1007.6 |
| 20260506163013 | 21 | 190 | 3.2 | 11.3 | 0.00 | 0.00 | 0.00 | 60 | 1007.7 |
| 20260506162507 | 21 | 134 | 1.6 | 9.7 | 0.00 | 0.00 | 0.00 | 62 | 1007.8 |
| 20260506162010 | 21 | 121 | 3.2 | 9.7 | 0.00 | 0.00 | 0.00 | 61 | 1007.8 |
| 20260506161522 | 21 | 218 | 3.2 | 8.0 | 0.00 | 0.00 | 0.00 | 59 | 1008.0 |
| 20260506161011 | 21 | 219 | 1.6 | 8.0 | 0.00 | 0.00 | 0.00 | 59 | 1008.2 |
| 20260506160508 | 21 | 27 | 3.2 | 22.5 | 0.00 | 0.00 | 0.00 | 59 | 1008.1 |
| 20260506160023 | 21 | 173 | 4.8 | 22.5 | 0.00 | 0.00 | 0.00 | 61 | 1008.3 |
| 20260506155509 | 21 | 121 | 1.6 | 17.7 | 0.00 | 0.00 | 0.00 | 62 | 1008.4 |
| 20260506155007 | 21 | 227 | 1.6 | 17.7 | 0.00 | 0.00 | 0.00 | 62 | 1008.5 |
| 20260506154508 | 21 | 139 | 4.8 | 17.7 | 0.00 | 0.00 | 0.00 | 62 | 1008.6 |
| 20260506154003 | 21 | 125 | 4.8 | 11.3 | 0.00 | 0.00 | 0.00 | 63 | 1008.7 |
| 20260506153503 | 21 | 203 | 3.2 | 17.7 | 0.00 | 0.00 | 0.00 | 63 | 1008.8 |
| 20260506153011 | 21 | 187 | 6.4 | 17.7 | 0.00 | 0.00 | 0.00 | 62 | 1008.8 |
| 20260506152503 | 20 | 105 | 4.8 | 14.5 | 0.00 | 0.00 | 0.00 | 63 | 1008.9 |
| 20260506152004 | 20 | 215 | 3.2 | 12.9 | 0.00 | 0.00 | 0.00 | 63 | 1008.9 |
| 20260506151516 | 20 | 127 | 3.2 | 12.9 | 0.00 | 0.00 | 0.00 | 63 | 1008.7 |
| 20260506151008 | 21 | 207 | 3.2 | 14.5 | 0.00 | 0.00 | 0.00 | 64 | 1008.8 |
| 20260506150505 | 20 | 74 | 3.2 | 14.5 | 0.00 | 0.00 | 0.00 | 65 | 1009.0 |
| 20260506150020 | 20 | 131 | 0.0 | 11.3 | 0.00 | 0.00 | 0.00 | 66 | 1009.0 |
| 20260506145512 | 20 | 190 | 3.2 | 11.3 | 0.00 | 0.00 | 0.00 | 66 | 1009.0 |
| 20260506145010 | 20 | 133 | 4.8 | 11.3 | 0.00 | 0.00 | 0.00 | 66 | 1008.8 |
| 20260506144536 | 20 | 281 | 1.6 | 14.5 | 0.00 | 0.00 | 0.00 | 65 | 1008.7 |
| 20260506144010 | 20 | 273 | 3.2 | 14.5 | 0.00 | 0.00 | 0.00 | 64 | 1008.8 |
| 20260506143504 | 20 | 169 | 3.2 | 11.3 | 0.00 | 0.00 | 0.00 | 67 | 1008.9 |
| 20260506143010 | 20 | 177 | 4.8 | 11.3 | 0.00 | 0.00 | 0.00 | 65 | 1008.9 |
| 20260506142505 | 20 | 105 | 1.6 | 6.4 | 0.00 | 0.00 | 0.00 | 67 | 1008.8 |
| 20260506142004 | 20 | 254 | 1.6 | 6.4 | 0.00 | 0.00 | 0.00 | 67 | 1008.7 |
| 20260506141516 | 20 | 139 | 1.6 | 17.7 | 0.00 | 0.00 | 0.00 | 68 | 1008.6 |
| 20260506141009 | 19 | 99 | 1.6 | 17.7 | 0.00 | 0.00 | 0.00 | 68 | 1008.7 |
| 20260506140504 | 19 | 163 | 0.0 | 8.0 | 0.00 | 0.00 | 0.00 | 69 | 1008.7 |
| 20260506140029 | 19 | 121 | 0.0 | 12.9 | 0.00 | 0.00 | 0.00 | 69 | 1008.7 |
| 20260506135507 | 18 | 284 | 1.6 | 12.9 | 0.00 | 0.00 | 0.00 | 69 | 1008.8 |
| 20260506135009 | 18 | 192 | 1.6 | 11.3 | 0.00 | 0.00 | 0.00 | 70 | 1008.9 |
| 20260506134530 | 18 | 219 | 3.2 | 11.3 | 0.00 | 0.00 | 0.00 | 69 | 1008.9 |
| 20260506134010 | 18 | 162 | 1.6 | 4.8 | 0.00 | 0.00 | 0.00 | 70 | 1009.0 |
| 20260506133509 | 18 | 131 | 1.6 | 9.7 | 0.00 | 0.00 | 0.00 | 70 | 1009.1 |
| 20260506133025 | 18 | 225 | 3.2 | 9.7 | 0.00 | 0.00 | 0.00 | 70 | 1009.1 |
| 20260506132511 | 18 | 173 | 3.2 | 9.7 | 0.00 | 0.00 | 0.00 | 70 | 1009.0 |
| 20260506132003 | 18 | 279 | 1.6 | 14.5 | 0.00 | 0.00 | 0.00 | 70 | 1008.9 |
| 20260506131512 | 18 | 222 | 3.2 | 14.5 | 0.00 | 0.00 | 0.00 | 70 | 1008.9 |
| 20260506131003 | 18 | 138 | 1.6 | 19.3 | 0.00 | 0.00 | 0.00 | 70 | 1009.1 |
| 20260506130508 | 18 | 118 | 3.2 | 19.3 | 0.00 | 0.00 | 0.00 | 71 | 1009.2 |
| 20260506130016 | 18 | 134 | 3.2 | 14.5 | 0.00 | 0.00 | 0.00 | 71 | 1009.2 |
| 20260506125506 | 18 | 286 | 3.2 | 14.5 | 0.00 | 0.00 | 0.00 | 71 | 1009.2 |
| 20260506125005 | 18 | 127 | 1.6 | 11.3 | 0.00 | 0.00 | 0.00 | 71 | 1009.1 |
| 20260506124522 | 18 | 140 | 3.2 | 11.3 | 0.00 | 0.00 | 0.00 | 71 | 1009.0 |
| 20260506124009 | 18 | 171 | 1.6 | 14.5 | 0.00 | 0.00 | 0.00 | 71 | 1009.0 |
| 20260506123509 | 18 | 130 | 4.8 | 14.5 | 0.00 | 0.00 | 0.00 | 71 | 1009.0 |
| 20260506123036 | 18 | 136 | 1.6 | 12.9 | 0.00 | 0.00 | 0.00 | 71 | 1009.2 |
| 20260506122510 | 18 | 221 | 1.6 | 12.9 | 0.00 | 0.00 | 0.00 | 71 | 1009.3 |
| 20260506122010 | 18 | 250 | 0.0 | 3.2 | 0.00 | 0.00 | 0.00 | 72 | 1009.2 |
| 20260506121526 | 17 | 228 | 0.0 | 6.4 | 0.00 | 0.00 | 0.00 | 73 | 1009.2 |
| 20260506121013 | 17 | 189 | 3.2 | 9.7 | 0.00 | 0.00 | 0.00 | 73 | 1009.2 |
| 20260506120503 | 17 | 131 | 1.6 | 12.9 | 0.00 | 0.00 | 0.00 | 73 | 1009.3 |
| 20260506120024 | 17 | 266 | 1.6 | 12.9 | 0.00 | 0.00 | 0.00 | 73 | 1009.3 |
| 20260506115513 | 17 | 169 | 1.6 | 9.7 | 0.00 | 0.00 | 0.00 | 74 | 1009.4 |
| 20260506115008 | 17 | 182 | 1.6 | 4.8 | 0.00 | 0.00 | 0.00 | 74 | 1009.4 |
| 20260506114522 | 17 | 184 | 0.0 | 12.9 | 0.00 | 0.00 | 0.00 | 74 | 1009.5 |
| 20260506114014 | 17 | 158 | 4.8 | 12.9 | 0.00 | 0.00 | 0.00 | 73 | 1009.4 |
| 20260506113508 | 17 | 207 | 1.6 | 6.4 | 0.00 | 0.00 | 0.00 | 74 | 1009.4 |
| 20260506113033 | 17 | 195 | 1.6 | 6.4 | 0.00 | 0.00 | 0.00 | 74 | 1009.5 |
| 20260506112508 | 16 | 166 | 1.6 | 6.4 | 0.00 | 0.00 | 0.00 | 74 | 1009.6 |
| 20260506112002 | 16 | 179 | 0.0 | 6.4 | 0.00 | 0.00 | 0.00 | 74 | 1009.8 |
| 20260506111506 | 16 | 186 | 0.0 | 6.4 | 0.00 | 0.00 | 0.00 | 74 | 1009.8 |
| 20260506111002 | 16 | 141 | 1.6 | 11.3 | 0.00 | 0.00 | 0.00 | 74 | 1009.9 |
| 20260506110504 | 16 | 208 | 0.0 | 16.1 | 0.00 | 0.00 | 0.00 | 75 | 1009.7 |
| 20260506110003 | 16 | 145 | 0.0 | 16.1 | 0.00 | 0.00 | 0.00 | 75 | 1009.9 |
| 20260506105502 | 16 | 165 | 1.6 | 3.2 | 0.00 | 0.00 | 0.00 | 75 | 1010.0 |
| 20260506105004 | 16 | 139 | 0.0 | 11.3 | 0.00 | 0.00 | 0.00 | 75 | 1009.9 |
| 20260506104504 | 16 | 124 | 3.2 | 11.3 | 0.00 | 0.00 | 0.00 | 75 | 1009.7 |
| 20260506104003 | 16 | 194 | 0.0 | 6.4 | 0.00 | 0.00 | 0.00 | 75 | 1009.7 |
| 20260506103503 | 16 | 166 | 1.6 | 16.1 | 0.00 | 0.00 | 0.00 | 75 | 1009.8 |
| 20260506103004 | 16 | 173 | 1.6 | 16.1 | 0.00 | 0.00 | 0.00 | 75 | 1009.9 |
| 20260506102503 | 16 | 114 | 3.2 | 16.1 | 0.00 | 0.00 | 0.00 | 75 | 1009.8 |
| 20260506102004 | 16 | 106 | 3.2 | 11.3 | 0.00 | 0.00 | 0.00 | 75 | 1009.7 |
| 20260506101505 | 16 | 146 | 0.0 | 9.7 | 0.00 | 0.00 | 0.00 | 75 | 1009.9 |
| 20260506101004 | 16 | 234 | 0.0 | 9.7 | 0.00 | 0.00 | 0.00 | 75 | 1009.9 |
| 20260506100503 | 16 | 207 | 1.6 | 6.4 | 0.00 | 0.00 | 0.00 | 75 | 1009.8 |
| 20260506100015 | 16 | 165 | 0.0 | 3.2 | 0.00 | 0.00 | 0.00 | 74 | 1009.8 |
| 20260506095502 | 16 | 191 | 0.0 | 4.8 | 0.00 | 0.00 | 0.00 | 74 | 1009.7 |
| 20260506095003 | 16 | 169 | 1.6 | 6.4 | 0.00 | 0.00 | 0.00 | 74 | 1009.5 |
| 20260506094508 | 16 | 187 | 3.2 | 6.4 | 0.00 | 0.00 | 0.00 | 74 | 1009.6 |
| 20260506094004 | 16 | 113 | 0.0 | 4.8 | 0.00 | 0.00 | 0.00 | 74 | 1009.7 |
| 20260506093503 | 16 | 144 | 1.6 | 4.8 | 0.00 | 0.00 | 0.00 | 74 | 1009.7 |
| 20260506093005 | 16 | 110 | 0.0 | 3.2 | 0.00 | 0.00 | 0.00 | 74 | 1009.7 |
| 20260506092503 | 16 | 183 | 1.6 | 11.3 | 0.00 | 0.00 | 0.00 | 74 | 1009.6 |
| 20260506092003 | 16 | 232 | 1.6 | 11.3 | 0.00 | 0.00 | 0.00 | 74 | 1009.6 |
| 20260506091506 | 16 | 99 | 3.2 | 11.3 | 0.00 | 0.00 | 0.00 | 72 | 1009.6 |
| 20260506091007 | 16 | 193 | 1.6 | 11.3 | 0.00 | 0.00 | 0.00 | 73 | 1009.6 |
| 20260506090504 | 16 | 210 | 1.6 | 11.3 | 0.00 | 0.00 | 0.00 | 73 | 1009.5 |
| 20260506090009 | 16 | 143 | 0.0 | 14.5 | 0.00 | 0.00 | 0.00 | 73 | 1009.5 |
| 20260506085506 | 16 | 177 | 1.6 | 12.9 | 0.00 | 0.00 | 0.00 | 73 | 1009.5 |
| 20260506085004 | 16 | 173 | 0.0 | 9.7 | 0.00 | 0.00 | 0.00 | 72 | 1009.5 |
| 20260506084510 | 16 | 111 | 0.0 | 3.2 | 0.00 | 0.00 | 0.00 | 72 | 1009.5 |
| 20260506084004 | 16 | 150 | 0.0 | 8.0 | 0.00 | 0.00 | 0.00 | 72 | 1009.4 |
| 20260506083504 | 16 | 208 | 1.6 | 8.0 | 0.00 | 0.00 | 0.00 | 72 | 1009.4 |
| 20260506083007 | 16 | 153 | 3.2 | 9.7 | 0.00 | 0.00 | 0.00 | 72 | 1009.3 |
| 20260506082506 | 16 | 169 | 1.6 | 9.7 | 0.00 | 0.00 | 0.00 | 72 | 1009.4 |
| 20260506082004 | 16 | 173 | 0.0 | 3.2 | 0.00 | 0.00 | 0.00 | 71 | 1009.3 |